Miscellaneous Local Product
Issued by NWS Hastings, NE

Home | Current Version | Previous Version | Graphics & Text | Print | Product List | Glossary On
Versions: 1 2 3 4 5 6 7 8 9 10 11 12 13 14 15 16 17 18 19 20 21 22 23 24 25 26 27 28 29 30 31 32 33 34 35 36 37 38 39 40 41 42 43 44 45 46 47 48 49 50
768
AXUS43 KGID 082202
MISGRI

GID CWA HOURLY WEATHER ROUNDUP
NATIONAL WEATHER SERVICE HASTINGS NE
400 PM CST MON FEB 08 2016

NOTE: "FAIR" INDICATES FEW OR NO CLOUDS BELOW 12,000 FEET WITH NO
SIGNIFICANT WEATHER AND/OR OBSTRUCTIONS TO VISIBILITY.

...SOUTH CENTRAL NEBRASKA...

CITY           SKY/WX    TMP DP  RH WIND       PRES   REMARKS
GRAND ISLAND   SUNNY     35  17  47 NW26G36   30.17S WCI  22
HASTINGS       SUNNY     35  19  52 NW20      30.18R WCI  24
ORD            CLOUDY    35  17  47 NW29G39   30.17S WCI  22
YORK           SUNNY     34  23  64 N31G41    30.13R WCI  20
AURORA         SUNNY     35  20  56 N21G30    30.16R WCI  23
LEXINGTON      MOSUNNY   36  15  42 NW29G36   30.23R WCI  23
HOLDREGE       CLOUDY    35  16  46 NW22G29   30.21S WCI  23
HEBRON         SUNNY     36  22  56 NW18G24   30.16S WCI  26

...NEBRASKA PANHANDLE...

CITY           SKY/WX    TMP DP  RH WIND       PRES   REMARKS
CHADRON        CLOUDY    41  19  41 W9        30.28F
ALLIANCE       MOSUNNY   36  22  56 N14       30.26F WCI  27
SCOTTSBLUFF    CLOUDY    41  28  60 NW13      30.30S
SIDNEY         CLOUDY    39  27  62 N20       30.28S WCI  29

...WESTERN AND NORTH CENTRAL NEBRASKA...

CITY           SKY/WX    TMP DP  RH WIND       PRES   REMARKS
VALENTINE      PTSUNNY   36  15  42 NW20G28   30.23F WCI  25
AINSWORTH      SUNNY     35  14  42 NW22G33   30.21F WCI  24
ONEILL         PTSUNNY   34  19  55 NW30G41   30.18S WCI  20
BROKEN BOW     MOSUNNY   36  13  38 NW29G46   30.19F WCI  23
IMPERIAL       MOSUNNY   37  19  48 NW21G28   30.28S WCI  26
NORTH PLATTE   SUNNY     36  14  40 NW21G32   30.25S WCI  25
MCCOOK         MOSUNNY   37  19  48 NW21      30.27S WCI  26

...EASTERN NEBRASKA...

CITY           SKY/WX    TMP DP  RH WIND       PRES   REMARKS
NORFOLK        SUNNY     34  19  54 NW26G43   30.10R WCI  21
SO SIOUX CITY  MOSUNNY   29  18  63 N25G40    30.09R WCI  14
TEKAMAH        SUNNY     31  18  58 NW28G40   30.10S WCI  17
COLUMBUS       SUNNY     34  16  47 NW29G35   30.11S WCI  20
ALBION         MOSUNNY   33  19  55 NW24G36   30.13S WCI  21
OMAHA EPPLEY   MOSUNNY   30  18  60 N29G39    30.08S WCI  15
OFFUTT AFB     MOSUNNY   31  17  56 NW23G37   30.08S WCI  17
MILLARD        PTSUNNY   32  19  59 NW18G28   30.10R WCI  20
LINCOLN        SUNNY     34  18  52 NW26G32   30.13S WCI  21
NEBRASKA CITY  PTSUNNY   32  19  58 NW26G36   30.09R WCI  19
BEATRICE       SUNNY     35  19  54 N26G35    30.14R WCI  22
FALLS CITY     MOSUNNY   32  17  54 NW17G31   30.10R WCI  21

...NORTHERN KANSAS...

CITY           SKY/WX    TMP DP  RH WIND       PRES   REMARKS
GOODLAND       CLOUDY    37  21  52 N21G28    30.28S WCI  26
HILL CITY      CLOUDY    38  18  44 NW14G25   30.28S WCI  30
NORTON         CLEAR     36  18  48 NW14      30.25  WCI  27
PHILLIPSBURG   MOSUNNY   37  19  48 NW16G22   30.25F WCI  28
SMITH CENTER   SUNNY     36  19  51 NW25G32   30.23S WCI  23
BELOIT         SUNNY     39  18  41 NW21G33   30.21S WCI  29
HAYS           CLOUDY    39  14  35 NW30G37   30.27F WCI  27
RUSSELL        MOSUNNY   38  19  46 NW29G35   30.25S WCI  26
CONCORDIA      SUNNY     38  17  42 NW28G38   30.18R WCI  26
SALINA         SUNNY     43  14  31 NW33G43   30.20S
TOPEKA         PTSUNNY   37  14  38 NW30G37   30.12S WCI  24



USA.gov is the U.S. government's official web portal to all federal, state and local government web resources and services.